Showing default

ECHOSTAR 21, 42749

Orbit data source: Space-Track

ECHOSTAR 21, 42749 is a payload satellite owned by Echostar Mobile (US) in GEO that was launched on Thu, 08 Jun 2017 UTC via a PROTON-M/BRIZ-M launch vehicle from the Tyuratam Missile And Space Complex (TTMTR). Payload-class satellites include a variety of spacecraft equipped with specific instruments for various scientific and technological missions. These include communications satellites like Starlink; space stations such as the ISS; scientific satellites like the Hubble; Earth observation satellites from companies like Planet Labs, Umbra, and HawkEye 360; GPS; miniature CubeSats for education and research; and military/defense satellites.

Not visible in the next 10 days
Identifier
42749, 2017-032A
Orbit
GEO
Country
Flag of USUS
Related business
Manufacturer
SS/Loral (MDA)
Mission
Operational Commercial Communications
Bus & Motor
LS-1300, R-4D-11
Mass
6,871 kg wet, ~3,000 kg dry
Launch date (UTC)
2017-06-08 (8 years ago)
Launch vehicle
PROTON-M/BRIZ-M
Launch site
Tyuratam Missile And Space Complex (TTMTR)
Object type
Payload
Rocket body
Debris
Shape & HBR
Box + 2 Pan + 1 Dish, 16.2 m
Radar Cross Section
47.415 m², Large (>1 m²)

Expand to show TLE details & history
Last TLE update: 10 hours ago

TLE from 10 hours ago
0 ECHOSTAR 21
1 42749U 17032A   25306.32609419  .00000074  00000-0  00000+0 0  9999
2 42749   1.8669 341.1604 0002558 240.3100 308.0648  1.00273044 30820
Epoch: 2025-11-02T07:49Z
TLE epoch observation values (Epoch: 2025-11-02T07:49:34.538Z)
Latitude
-0.29083°
Longitude
10.23489°
Altitude
35,779.091 km
Speed
3.075 km/s
True Right ascension
11h 17m 53s
True Declination
0° 17' 26"
Sunlit
Object was in daylight at epoch
Visualization orbit readout
Latitude
Unknown
Longitude
Unknown
Altitude
Unknown
Speed
Unknown
Apparent Right ascension
Unknown
Apparent Declination
Unknown
Sunlit
N/A
Visualization observer readout
Local Sidereal Time
13:31:02
Azimuth
Unknown
Elevation
Unknown
Doppler factor
Unknown
Orbital elements
Apogee altitude
35,798.097 km
Perigee altitude
35,776.525 km
Semi-major axis
42,165.448 km
Eccentricity
0.00026
Inclination
1.8669°
RAAN
341.1604°
Arg. of periapsis
240.31°
True anomaly
308.04172°
Mean anomaly
308.0648°
Eccentric anomaly
308.05326°
Mean motion
0.25067 °/min
Orbital period
1,436.13 mins
BSTAR
0
Loading maneuver chart data...
Computing Atmospheric mass density...
Loading historical data...
Loading historical data...
Loading historical data...
Loading historical data...
Loading historical data...
Loading historical data...
Loading historical data...
Other satellites on launch #32 in the year 2017 (2017-06-08 UTC)

Documentation

Showing up to 5 results
|